GW7060 Weather Reports


time (UTC)temp
C
wind
direction
speed
KPH
gust
KPH
rain 1hr
cm
rain 24hr
cm
rain mn
cm
humidity
%
barometer
mb
20260507205107 12 279 1.6 8.0 0.00 0.00 0.00 83 1009.8
20260507204106 12 284 1.6 6.4 0.00 0.00 0.00 84 1009.9
20260507203107 12 306 3.2 9.7 0.00 0.00 0.00 82 1010.0
20260507202108 12 310 3.2 8.0 0.00 0.00 0.00 83 1009.8
20260507201108 12 280 4.8 9.7 0.00 0.00 0.00 82 1009.8
20260507200108 11 327 3.2 9.7 0.00 0.00 0.00 83 1009.5
20260507195108 11 103 1.6 11.3 0.00 0.00 0.00 82 1009.4
20260507194107 11 290 3.2 8.0 0.00 0.00 0.00 83 1009.7
20260507193107 11 272 4.8 9.7 0.00 0.00 0.00 83 1009.8
20260507192127 11 331 3.2 9.7 0.00 0.00 0.00 86 1009.8
20260507191107 11 332 3.2 6.4 0.00 0.00 0.00 86 1009.9
20260507190107 11 291 6.4 14.5 0.03 0.00 0.00 84 1010.2
20260507185107 11 74 3.2 8.0 0.03 0.00 0.00 87 1010.7
20260507184106 11 231 3.2 12.9 0.05 0.00 0.00 87 1010.6
20260507183126 11 302 4.8 11.3 0.08 0.00 0.00 88 1010.7
20260507182128 11 293 4.8 16.1 0.10 0.00 0.00 92 1010.1
20260507181108 11 315 3.2 6.4 0.15 0.00 0.00 93 1010.5
20260507180108 11 309 4.8 9.7 0.15 0.00 0.00 94 1010.3
20260507175108 11 327 4.8 9.7 0.15 0.00 0.00 94 1010.8
20260507174107 11 304 4.8 12.9 0.18 0.00 0.00 95 1011.0
20260507173107 11 319 4.8 9.7 0.20 0.00 0.00 95 1011.6
20260507172107 11 305 3.2 9.7 0.20 0.00 0.00 95 1012.0
20260507171107 11 301 3.2 9.7 0.23 0.00 0.00 95 1011.7
20260507170107 11 291 4.8 9.7 0.25 0.00 0.00 94 1011.7
20260507165126 11 300 3.2 8.0 0.25 0.00 0.00 94 1011.3
20260507164106 11 307 4.8 11.3 0.25 0.00 0.00 94 1011.3
20260507163108 12 296 3.2 9.7 0.28 0.00 0.00 95 1011.1
20260507162108 12 254 3.2 8.0 0.33 0.00 0.00 94 1011.5
20260507161108 12 336 3.2 9.7 0.36 0.00 0.00 94 1011.5
20260507160107 12 292 6.4 17.7 0.43 0.00 0.00 94 1011.5
20260507155108 12 307 6.4 14.5 0.43 0.00 0.00 95 1011.4
20260507154107 12 333 3.2 11.3 0.41 0.00 0.00 95 1010.8
20260507153107 12 320 8.0 17.7 0.36 0.00 0.00 94 1011.5
20260507152106 12 317 9.7 16.1 0.25 0.00 0.00 94 1011.8
20260507151127 12 318 8.0 19.3 0.18 0.00 0.00 93 1012.2
20260507150106 12 327 11.3 22.5 0.05 0.00 0.00 90 1012.1
20260507145108 12 329 12.9 22.5 0.03 0.00 0.00 90 1011.7
20260507144108 13 321 11.3 20.9 0.03 0.00 0.00 90 1011.8
20260507143128 13 313 9.7 19.3 0.03 0.00 0.00 88 1011.5
20260507142107 13 298 9.7 17.7 0.03 0.00 0.00 90 1011.4
20260507141107 13 334 3.2 14.5 0.03 0.00 0.00 91 1011.4
20260507140107 14 322 6.4 14.5 0.05 0.00 0.00 93 1011.2
20260507135107 15 297 4.8 17.7 0.10 0.00 0.00 95 1011.3
20260507134106 15 279 3.2 9.7 0.10 0.00 0.00 95 1011.1
20260507133108 15 311 9.7 19.3 0.13 0.00 0.00 95 1011.0
20260507132108 15 314 9.7 19.3 0.13 0.00 0.00 94 1011.0
20260507131108 15 337 8.0 19.3 0.18 0.00 0.00 94 1010.9
20260507130108 15 312 12.9 19.3 0.20 0.00 0.00 94 1011.3
20260507125129 15 327 9.7 22.5 0.18 0.00 0.00 94 1011.4
20260507124107 15 306 8.0 17.7 0.18 0.00 0.00 94 1011.2
20260507123127 15 327 11.3 17.7 0.18 0.00 0.00 94 1011.2
20260507122107 15 346 11.3 16.1 0.20 0.00 0.00 94 1011.3
20260507121107 15 328 9.7 20.9 0.15 0.00 0.00 93 1011.3
20260507120106 15 326 8.0 20.9 0.10 0.00 0.00 93 1011.4
20260507115108 15 347 9.7 24.1 0.13 0.00 0.00 93 1011.2
20260507114128 15 342 14.5 24.1 0.18 0.00 0.00 94 1011.1
20260507113108 15 322 9.7 17.7 0.20 0.00 0.00 95 1010.8
20260507112128 15 331 9.7 19.3 0.38 0.00 0.00 94 1011.1
20260507111107 17 313 8.0 17.7 0.64 0.00 0.00 95 1010.6
20260507110107 18 310 3.2 9.7 0.99 0.00 0.00 95 1010.3
20260507105107 18 286 3.2 8.0 1.19 0.00 0.00 95 1010.3
20260507104107 18 302 3.2 9.7 1.14 0.00 0.00 95 1010.1
20260507103107 18 185 1.6 9.7 1.09 0.00 0.00 94 1010.1
20260507102106 18 231 3.2 12.9 0.86 0.00 0.00 94 1010.0
20260507101106 18 239 1.6 9.7 0.64 0.00 0.00 94 1010.1
20260507100128 18 292 4.8 9.7 0.51 0.00 0.00 93 1010.0
20260507095108 18 257 3.2 8.0 0.36 0.00 0.00 92 1009.3
20260507094108 18 171 3.2 6.4 0.36 0.00 0.00 92 1009.1
20260507093128 18 61 3.2 8.0 0.36 0.00 0.00 91 1009.1
20260507092107 18 80 4.8 11.3 0.36 0.00 0.00 90 1009.3
20260507091107 20 158 6.4 17.7 0.25 0.00 0.00 85 1009.3
20260507090107 20 155 6.4 14.5 0.03 0.00 0.00 81 1009.5
20260507085107 20 169 4.8 11.3 0.00 0.00 0.00 80 1009.5
20260507084107 20 166 8.0 24.1 0.00 0.00 0.00 80 1009.6
20260507083126 20 169 8.0 14.5 0.00 0.00 0.00 80 1009.6
20260507082106 20 159 6.4 14.5 0.00 0.00 0.00 79 1009.7
20260507081106 20 162 6.4 16.1 0.00 0.00 0.00 79 1009.8
20260507080108 20 155 6.4 16.1 0.00 0.00 0.00 79 1009.9
20260507075108 20 170 6.4 11.3 0.00 0.00 0.00 80 1010.2
20260507074148 20 174 4.8 12.9 0.00 0.00 0.00 80 1010.1
20260507073108 20 170 4.8 8.0 0.00 0.00 0.00 80 1010.1
20260507072107 20 157 3.2 9.7 0.03 0.00 0.00 80 1010.1
20260507071107 20 162 4.8 9.7 0.03 0.00 0.00 80 1010.1
20260507070148 20 177 4.8 9.7 0.03 0.00 0.00 80 1009.9
20260507065147 20 163 3.2 12.9 0.05 0.00 0.00 80 1009.6
20260507064127 20 181 4.8 8.0 0.05 0.00 0.00 80 1009.4
20260507063106 20 185 1.6 6.4 0.05 0.00 0.00 79 1009.5
20260507062126 20 175 4.8 12.9 0.05 0.00 0.00 78 1010.1
20260507061148 20 180 4.8 12.9 0.03 0.00 0.00 78 1010.7
20260507060108 20 171 4.8 11.3 0.03 0.00 0.00 78 1010.9
20260507055107 20 182 1.6 11.3 0.03 0.00 0.00 77 1010.9
20260507054108 21 166 1.6 8.0 0.00 0.00 0.00 75 1011.0
20260507053108 21 177 4.8 11.3 0.00 0.00 0.00 74 1011.1
20260507052107 21 181 4.8 9.7 0.00 0.00 0.00 73 1011.1
20260507051107 21 154 4.8 11.3 0.00 0.00 0.00 70 1011.2
20260507050107 21 179 6.4 11.3 0.00 0.00 0.00 70 1010.7
20260507045107 22 182 4.8 9.7 0.00 0.00 0.00 68 1010.7
20260507044107 22 179 4.8 14.5 0.00 0.00 0.00 68 1010.7
20260507043106 22 179 4.8 12.9 0.00 0.00 0.00 68 1011.0
20260507042128 22 188 4.8 8.0 0.00 0.00 0.00 67 1010.9
20260507041108 22 184 3.2 8.0 0.00 0.00 0.00 67 1010.8
20260507040108 21 176 1.6 8.0 0.00 0.00 0.00 68 1010.8
20260507035108 22 191 1.6 4.8 0.00 0.00 0.00 67 1010.4
20260507034107 21 164 0.0 6.4 0.00 0.00 0.00 67 1010.3
20260507033107 22 153 0.0 4.8 0.00 0.00 0.00 67 1010.4
20260507032107 22 198 1.6 6.4 0.00 0.00 0.00 66 1010.3
20260507031128 22 176 3.2 6.4 0.00 0.00 0.00 65 1010.7
20260507030107 22 185 3.2 9.7 0.00 0.00 0.00 65 1011.0
20260507025127 22 192 1.6 8.0 0.00 0.00 0.00 65 1011.1
20260507024108 22 187 3.2 8.0 0.00 0.00 0.00 64 1011.2
20260507023129 22 189 3.2 9.7 0.00 0.00 0.00 65 1011.0
20260507022108 22 187 3.2 11.3 0.00 0.00 0.00 65 1011.1
20260507021128 22 185 3.2 9.7 0.00 0.00 0.00 65 1011.0
20260507020106 22 176 3.2 4.8 0.00 0.00 0.00 63 1011.2
20260507015109 22 169 4.8 6.4 0.00 0.00 0.00 62 1011.2
20260507014148 23 188 4.8 6.4 0.00 0.00 0.00 62 1011.2
20260507013108 23 191 3.2 8.0 0.00 0.00 0.00 61 1010.9
20260507012108 23 186 4.8 8.0 0.00 0.00 0.00 61 1011.0
20260507011105 23 183 3.2 9.7 0.00 0.00 0.00 60 1011.1
20260507010121 23 191 3.2 6.4 0.00 0.00 0.00 60 1011.2
20260507005118 23 174 3.2 6.4 0.00 0.00 0.00 58 1011.2
20260507004056 23 180 3.2 6.4 0.00 0.00 0.00 58 1011.0
20260507003054 23 180 3.2 8.0 0.00 0.00 0.00 57 1010.8
20260507002130 24 162 3.2 9.7 0.00 0.00 0.00 56 1010.7
20260507001048 24 202 4.8 8.0 0.00 0.00 0.00 56 1010.6
20260507000046 24 184 4.8 9.7 0.00 0.00 0.00 55 1010.5
20260506235044 24 177 4.8 11.3 0.00 0.00 0.00 54 1010.5
20260506234041 25 180 3.2 9.7 0.00 0.00 0.00 54 1010.3
20260506233037 25 188 1.6 6.4 0.00 0.00 0.00 54 1010.3
20260506232035 25 178 4.8 9.7 0.00 0.00 0.00 53 1010.1
20260506231033 25 188 4.8 12.9 0.00 0.00 0.00 53 1010.2
20260506230029 25 194 3.2 8.0 0.00 0.00 0.00 54 1010.0
20260506225047 25 189 4.8 11.3 0.00 0.00 0.00 54 1010.1
20260506224025 25 166 4.8 9.7 0.00 0.00 0.00 54 1010.1
20260506223043 25 188 4.8 14.5 0.00 0.00 0.00 54 1010.2
20260506222018 25 172 8.0 14.5 0.00 0.00 0.00 54 1010.1
20260506221016 25 190 6.4 14.5 0.00 0.00 0.00 54 1010.0
20260506220108 25 185 4.8 11.3 0.00 0.00 0.00 54 1010.0
20260506215108 25 184 6.4 16.1 0.00 0.00 0.00 54 1009.8
20260506214128 25 179 9.7 12.9 0.00 0.00 0.00 53 1009.7
20260506213107 25 182 8.0 20.9 0.00 0.00 0.00 52 1010.0
20260506212107 25 181 8.0 24.1 0.00 0.00 0.00 52 1009.8
20260506211107 25 182 8.0 14.5 0.00 0.00 0.00 53 1009.8
20260506210127 25 195 4.8 17.7 0.00 0.00 0.00 53 1009.9